[[{"header":{"parameterUnit":"m.s-1","parameterCategory":1,"la1":30.2992,"la2":30.254,"lo1":-89.0895,"lo2":-89.0443,"dy":0.0025,"dx":0.0025,"nx":19,"ny":19,"refTime":"2026-03-21T03:00:00:Z","depth":0,"parameterNumber":2,"parameterNumberName":"U-component_of_WINDS"},"data":[0,0,0,2.6437,2.6439,2.6529,2.653,2.6651,2.6652,0,0,0,0,0,0,0,0,0,0,0,2.6415,2.6416,2.6436,2.6439,2.6529,2.653,2.665,2.6652,0,0,0,0,0,0,0,0,0,0,0,2.6414,2.6415,2.6417,2.6439,2.6529,2.653,2.665,2.658,0,0,0,0,0,0,0,0,0,0,2.6491,2.6476,2.6415,2.6417,2.644,2.6529,2.653,2.6576,2.6584,2.6612,0,2.664,0,2.6648,2.666,2.6661,0,0,0,2.6435,2.6469,2.6489,2.6417,2.6441,2.6529,2.6488,2.658,2.6589,2.6623,2.6641,2.6646,2.665,2.6661,2.6662,2.6836,2.6837,0,0,2.643,2.6434,2.6483,2.6495,2.6483,2.6485,2.649,2.6586,2.6606,2.6642,2.6648,2.6652,2.6662,2.6663,2.6835,2.6836,0,0,0,2.6418,2.643,2.6448,2.649,2.6506,2.6487,2.6494,2.6602,2.6607,2.665,2.6653,2.6663,2.6664,2.6834,2.6835,2.6885,0,0,0,2.6415,2.6423,2.6446,2.6449,2.6505,2.6556,2.6508,2.6601,2.6611,2.6652,2.6663,2.6665,2.6833,2.6835,2.6881,2.6908,0,0,0,2.6407,2.6422,2.6437,2.6449,2.6488,2.6554,2.6565,2.6603,2.6614,2.6661,2.6666,2.6832,2.6834,2.6878,2.6902,2.6952,0,0,0,2.6399,2.6483,2.6438,2.6532,2.6487,2.6585,2.6564,2.6637,2.6684,2.6663,2.6833,2.6835,2.6877,2.6899,2.6948,2.6992,2.7011,0,0,2.6506,2.6496,2.655,2.6513,2.6619,2.6571,2.6684,2.6724,2.6726,2.6799,2.6803,2.6883,2.6902,2.6951,2.7123,2.7138,0,0,0,2.6585,2.6624,2.6651,2.6695,2.6727,2.6755,2.6777,2.6791,2.6852,2.6765,2.6915,2.6927,2.6955,2.6975,2.6989,2.7011,2.6846,2.6845,2.6845,2.6741,2.6737,2.6825,2.6831,2.6874,2.6894,2.6927,2.6948,2.6935,2.697,2.6991,2.7095,2.712,2.713,2.7153,2.7016,2.7016,2.7016,2.7016,2.6894,2.6946,2.6922,2.6999,2.6994,2.7058,2.7079,2.7066,2.7123,2.7081,2.7105,2.7057,2.7147,2.7166,2.702,2.7019,2.7019,2.7019,2.7018,2.6993,2.7017,2.7032,2.7091,2.7138,2.7141,2.7195,2.719,2.7184,2.7209,2.7228,2.7227,2.7222,2.7219,2.7219,2.7219,2.722,2.722,2.722,2.7089,2.7104,2.7151,2.7189,2.7213,2.7245,2.7263,2.7287,2.7311,2.7302,2.7302,2.7282,2.7157,2.7124,2.7226,2.7225,2.7224,2.7224,2.7223,2.7241,2.7205,2.7278,2.7302,2.7343,2.7387,2.7378,2.7426,2.7445,2.7471,2.7444,2.7354,2.7343,2.7333,2.7305,2.7447,2.7447,2.7447,2.7447,2.7323,2.7316,2.7387,2.7425,2.7463,2.7461,2.7539,2.7552,2.7561,2.7571,2.755,2.7513,2.7503,2.7498,2.7484,2.7458,2.7636,2.7636,2.7636,2.7414,2.741,2.7479,2.7486,2.7517,2.7542,2.7614,2.7658,2.766,2.7644,2.7578,2.757,2.7511,2.7493,2.7474,2.7453,2.7405,0,0]},{"header":{"parameterUnit":"m.s-1","parameterCategory":1,"la1":30.2992,"la2":30.254,"lo1":-89.0895,"lo2":-89.0443,"dy":0.0025,"dx":0.0025,"nx":19,"ny":19,"refTime":"2026-03-21T03:00:00:Z","depth":0,"parameterNumber":3,"parameterNumberName":"V-component_of_WINDS"},"data":[0,0,0,4.673,4.6732,4.684,4.684,4.698,4.6981,0,0,0,0,0,0,0,0,0,0,0,4.6703,4.6705,4.673,4.6733,4.684,4.684,4.698,4.6981,0,0,0,0,0,0,0,0,0,0,0,4.6703,4.6704,4.6706,4.6733,4.684,4.684,4.698,4.6897,0,0,0,0,0,0,0,0,0,0,4.6791,4.6774,4.6704,4.6706,4.6734,4.684,4.684,4.6893,4.6902,4.6934,0,4.6967,0,4.6977,4.6991,4.6992,0,0,0,4.6727,4.6766,4.679,4.6706,4.6735,4.6839,4.679,4.6898,4.6908,4.6946,4.6969,4.6974,4.6979,4.6992,4.6993,4.7204,4.7205,0,0,4.6721,4.6725,4.6783,4.6798,4.6786,4.6786,4.6793,4.6904,4.6928,4.697,4.6977,4.6982,4.6993,4.6994,4.7202,4.7204,0,0,0,4.6708,4.6721,4.6742,4.6792,4.6811,4.679,4.6798,4.6923,4.693,4.6979,4.6983,4.6994,4.6996,4.7201,4.7203,4.7268,0,0,0,4.6704,4.6713,4.674,4.6743,4.681,4.6869,4.6814,4.6922,4.6935,4.6983,4.6994,4.6997,4.72,4.7202,4.7263,4.7296,0,0,0,4.6694,4.6712,4.673,4.6743,4.679,4.6867,4.6881,4.6925,4.6938,4.6992,4.6998,4.7199,4.7202,4.7259,4.729,4.7352,0,0,0,4.6684,4.6784,4.6731,4.6844,4.6789,4.6908,4.688,4.6967,4.7022,4.6995,4.72,4.7203,4.7257,4.7285,4.7348,4.7404,4.7429,0,0,4.6812,4.68,4.6866,4.6821,4.6951,4.6892,4.7029,4.7074,4.7074,4.7159,4.7165,4.7264,4.7289,4.7351,4.7568,4.7588,0,0,0,4.6908,4.6955,4.6989,4.7043,4.7082,4.7117,4.7141,4.7158,4.723,4.7121,4.7305,4.7319,4.7355,4.7382,4.7399,4.7428,4.7216,4.7216,4.7215,4.7092,4.709,4.7198,4.7209,4.7261,4.7286,4.7327,4.7352,4.7333,4.7376,4.7401,4.7534,4.7565,4.7578,4.7609,4.7432,4.7432,4.7433,4.7433,4.7277,4.7343,4.7318,4.7414,4.7409,4.7488,4.7515,4.7499,4.7569,4.7515,4.7546,4.7486,4.7599,4.7626,4.7438,4.7437,4.7436,4.7436,4.7435,4.7396,4.7427,4.7448,4.7526,4.7585,4.7591,4.7661,4.7654,4.7647,4.7679,4.7703,4.7702,4.7698,4.7691,4.7692,4.7692,4.7693,4.7693,4.7693,4.751,4.7532,4.7594,4.7644,4.7678,4.772,4.7746,4.7777,4.781,4.7798,4.7799,4.7773,4.7613,4.7571,4.77,4.7699,4.7698,4.7698,4.7697,4.7696,4.7653,4.7748,4.7782,4.784,4.7898,4.789,4.7954,4.7979,4.8013,4.7981,4.7865,4.785,4.7837,4.7802,4.7984,4.7984,4.7984,4.7984,4.7794,4.7788,4.7883,4.7937,4.799,4.7992,4.8095,4.8116,4.8129,4.8143,4.8117,4.8071,4.8058,4.8051,4.8033,4.8,4.8228,4.8228,4.8228,4.7907,4.7905,4.7996,4.8013,4.8058,4.8095,4.8192,4.8252,4.8258,4.8238,4.8154,4.8144,4.807,4.8047,4.8022,4.7995,4.7935,0,0]}]]